Skagway, AK

1:08 PM AKST on December 06, 2016 (GMT -0900)
Skagway

Weather History for PAGY - November, 2012

Change the Weather History Date:

Tuesday, November 6, 2012

  Actual Average Record
Temperature  
Mean Temperature 38 °F -  
Max Temperature 42 °F 39 °F 51 °F (2002)
Min Temperature 34 °F 31 °F 16 °F (2005)
Degree Days  
Heating Degree Days 27    
Moisture  
Dew Point 30 °F    
Average Humidity 79    
Maximum Humidity 100    
Minimum Humidity 48    
Precipitation  
Precipitation 0.13 in - - ()
Sea Level Pressure  
Sea Level Pressure 29.88 in    
Wind  
Wind Speed 4 mph (NNE)    
Max Wind Speed 16 mph    
Max Gust Speed 23 mph    
Visibility 9 miles    
Events Rain    
Averages and records for this station are not official NWS values.
T = Trace of Precipitation, MM = Missing Value Source: NWS Daily Summary

Daily Weather History Graph

Daily Weather History Graph

Search for Another Location

Airport or City:

Trip Planner

Search our weather history database for the weather conditions in past years. The results will help you decide how hot, cold, wet, or windy it might be!

Date:

Astronomy

Nov. 06, 2012 Rise Set
Actual Time 7:35 AM AKST 3:53 PM AKST
Civil Twilight 6:49 AM AKST 4:39 PM AKST
Nautical Twilight 6:00 AM AKST 5:28 PM AKST
Astronomical Twilight 5:12 AM AKST 6:16 PM AKST
Moon 11:01 PM AKST 1:16 PM AKST
Length of Visible Light 9h 49m
Length of Day
8h 18m
Waning Gibbous, 51% of the Moon is Illuminated
Nov 6
Waning Gibbous
Nov 6
Last Quarter
Nov 13
New
Nov 20
First Quarter
Nov 28
Full

Hourly Weather History & Observations

Time (AKST) Temp. Windchill Dew Point Humidity Pressure Visibility Wind Dir Wind Speed Gust Speed Precip Events Conditions
12:53 AM 37.9 °F 31.5 °F 33.1 °F 83% 29.90 in 10.0 mi NE 9.2 mph - N/A   Overcast
1:21 AM 37.4 °F - 33.8 °F 87% 29.90 in 9.0 mi Calm Calm - 0.00 in Rain Light Rain
1:53 AM 37.0 °F - 35.1 °F 93% 29.90 in 9.0 mi Calm Calm - 0.02 in Rain Light Rain
2:53 AM 36.0 °F - 34.0 °F 93% 29.90 in 10.0 mi Calm Calm - 0.03 in Rain Light Rain
3:51 AM 35.6 °F - 35.6 °F 100% 29.90 in 10.0 mi Calm Calm - 0.01 in Rain Light Rain
3:53 AM 36.0 °F - 35.1 °F 97% 29.90 in 10.0 mi Calm Calm - 0.01 in Rain Light Rain
4:11 AM 35.6 °F - 33.8 °F 93% 29.90 in 10.0 mi Calm Calm - 0.00 in Rain Light Rain
4:45 AM 35.6 °F - 35.6 °F 100% 29.90 in 7.0 mi Calm Calm - 0.01 in Rain Light Rain
4:53 AM 36.0 °F - 34.0 °F 93% 29.90 in 5.0 mi Calm Calm - 0.02 in Rain Light Rain
5:07 AM 35.6 °F - 33.8 °F 93% 29.90 in 8.0 mi Calm Calm - 0.01 in Rain Light Rain
5:22 AM 35.6 °F 32.8 °F 33.8 °F 93% 29.90 in 4.0 mi NE 3.5 mph - 0.02 in Rain Light Rain
5:53 AM 35.1 °F - 34.0 °F 96% 29.90 in 10.0 mi Calm Calm - 0.02 in Rain Light Rain
6:09 AM 35.6 °F - 33.8 °F 93% 29.90 in 10.0 mi Calm Calm - 0.01 in Rain Light Rain
6:53 AM 35.1 °F - 33.1 °F 92% 29.89 in 10.0 mi Calm Calm - 0.01 in   Mostly Cloudy
7:23 AM 35.6 °F - 33.8 °F 93% 29.89 in 4.0 mi Calm Calm - 0.01 in Rain Light Rain
7:53 AM 34.0 °F - 33.1 °F 96% 29.89 in 5.0 mi Calm Calm - 0.02 in   Overcast
8:53 AM 35.1 °F - 33.1 °F 92% 29.88 in 10.0 mi Calm Calm - 0.00 in   Overcast
9:53 AM 36.0 °F - 34.0 °F 93% 29.87 in 10.0 mi Calm Calm - N/A   Overcast
10:53 AM 37.0 °F - 35.1 °F 93% 29.86 in 10.0 mi Calm Calm - N/A   Overcast
11:53 AM 39.0 °F - 35.1 °F 86% 29.84 in 10.0 mi Calm Calm - N/A   Partly Cloudy
12:53 PM 41.0 °F 37.1 °F 33.1 °F 73% 29.83 in 10.0 mi Variable 5.8 mph - N/A   Scattered Clouds
1:53 PM 42.1 °F 37.7 °F 30.9 °F 65% 29.80 in 10.0 mi North 6.9 mph - N/A   Overcast
2:53 PM 42.1 °F 35.7 °F 28.9 °F 60% 29.79 in 10.0 mi North 11.5 mph 20.7 mph N/A   Overcast
3:53 PM 41.0 °F 35.2 °F 28.9 °F 62% 29.79 in 10.0 mi North 9.2 mph 17.3 mph N/A   Overcast
4:53 PM 41.0 °F 33.9 °F 26.1 °F 55% 29.79 in 10.0 mi North 12.7 mph 20.7 mph N/A   Overcast
5:53 PM 39.9 °F 32.1 °F 24.1 °F 53% 29.81 in 10.0 mi North 13.8 mph 21.9 mph N/A   Overcast
6:53 PM 39.9 °F 31.4 °F 23.0 °F 51% 29.83 in 10.0 mi NNE 16.1 mph 23.0 mph N/A   Overcast
7:53 PM 39.0 °F 30.6 °F 21.0 °F 49% 29.85 in 10.0 mi North 15.0 mph 23.0 mph N/A   Overcast
8:53 PM 37.9 °F 30.0 °F 19.9 °F 48% 29.88 in 10.0 mi NNE 12.7 mph 19.6 mph N/A   Overcast
9:53 PM 37.0 °F 30.4 °F 19.0 °F 48% 29.91 in 10.0 mi NNE 9.2 mph 17.3 mph N/A   Overcast
10:53 PM 36.0 °F 32.1 °F 18.0 °F 48% 29.94 in 10.0 mi Variable 4.6 mph 17.3 mph N/A   Overcast
11:53 PM 35.1 °F 29.3 °F 17.1 °F 48% 29.97 in 10.0 mi Variable 6.9 mph 16.1 mph N/A   Overcast